User: anonymous   Login
Location: Caltech
(34.1382°N, 118.1253°W)
Time: 03:24:37
(UTC-07:00)
Language:

Meteor 2-4 Rocket - Orbit

View from above orbital plane
View from above orbital plane
View from above satellite
View from above satellite

Ground track
Ground track

The orbit data is extracted from the following two-line orbital elements,

1 11289U 79021B   16270.60295525  .00000138  00000-0  67677-4 0  9999
2 11289  81.2455  61.2918 0074481 261.2648  98.0083 14.11544383933645
Epoch (UTC): 26 September 2016 14:28:15
Eccentricity: 0.0074481
inclination: 81.2455°
perigee height: 800 km
apogee height: 908 km
right ascension of ascending node: 61.2918°
argument of perigee: 261.2648°
revolutions per day: 14.11544383
mean anomaly at epoch: 98.0083°
orbit number at epoch: 93364

The dashed part of the orbit path shows where the satellite is in the earth's shadow,  

DLR